Weather History for Liberia, Costa Rica

Change the Weather History Date:

Saturday, November 10, 2012

  Actual Average Record
Temperature  
Mean Temperature 79 °F -  
Max Temperature 87 °F 86 °F 93 °F (2000)
Min Temperature 71 °F 72 °F 66 °F (2010)
Cooling Degree Days 14    
Growing Degree Days 29 (Base 50)    
Moisture  
Dew Point 69 °F    
Average Humidity 64    
Maximum Humidity 83    
Minimum Humidity 47    
Precipitation  
Precipitation 0.00 in - - ()
Sea Level Pressure  
Sea Level Pressure 29.82 in    
Wind  
Wind Speed 10 mph ()    
Max Wind Speed 21 mph    
Max Gust Speed -    
Visibility 7.9 miles    
Events      
Averages and records for this station are not official NWS values.
T = Trace of Precipitation, MM = Missing Value Source: Averaged Metar Reports

Daily Weather History Graph

Daily Weather History Graph

Search for Another Location

Airport:

Trip Planner

Search our weather history database for the weather conditions in past years. The results will help you decide how hot, cold, wet, or windy it might be!

Date:

Astronomy

Nov. 10, 2012 Rise Set
Actual Time 5:35 AM CST 5:16 PM CST
Civil Twilight 5:13 AM CST 5:38 PM CST
Nautical Twilight 4:48 AM CST 6:03 PM CST
Astronomical Twilight 4:23 AM CST 6:28 PM CST
Moon 2:16 AM CST (11/10) 2:32 PM CST (11/10)
Length of Visible Light 12h 24m
Length of Day
11h 40m
Waning Crescent, 14% of the Moon is Illuminated
Nov 10
Waning Crescent
Nov 13
New
Nov 20
First Quarter
Nov 28
Full
Dec 6
Last Quarter

Hourly Weather History & Observations

Time (CST) Temp. Heat Index Dew Point Humidity Pressure Visibility Wind Dir Wind Speed Gust Speed Precip Events Conditions
6:00 AM 72 °F - 67 °F 79% 29.83 in 12 mi SW 6.9 mph - -   Overcast
6:00 AM 71.6 °F - 66.2 °F 83% 29.81 in 6.2 mi SW 6.9 mph - N/A   Mostly Cloudy
7:00 AM 73.4 °F - 68.0 °F 83% 29.83 in 6.2 mi South 6.9 mph - N/A   Mostly Cloudy
8:00 AM 77.0 °F - 69.8 °F 78% 29.84 in 6.2 mi SSW 8.1 mph - N/A   Mostly Cloudy
9:00 AM 82 °F - 69 °F 56% 29.86 in 12 mi WSW 9.2 mph - -   Overcast
9:00 AM 82.4 °F 85.4 °F 68.0 °F 62% 29.85 in 6.2 mi WSW 9.2 mph - N/A   Mostly Cloudy
10:00 AM 84.2 °F 88.4 °F 69.8 °F 62% 29.85 in 6.2 mi SSW 5.8 mph - N/A   Mostly Cloudy
11:00 AM 84.2 °F 88.4 °F 69.8 °F 62% 29.81 in 6.2 mi East 17.3 mph - N/A   Mostly Cloudy
12:00 PM 84 °F - 70 °F 53% 29.82 in 12 mi East 20.7 mph - -   Scattered Clouds
12:00 PM 84.2 °F 88.4 °F 69.8 °F 62% 29.80 in 6.2 mi East 20.7 mph - N/A   Mostly Cloudy
1:00 PM 86.0 °F 89.4 °F 68.0 °F 55% 29.78 in 6.2 mi East 20.7 mph - N/A   Scattered Clouds
2:00 PM 84.2 °F 88.4 °F 69.8 °F 62% 29.77 in 6.2 mi East 18.4 mph - N/A   Mostly Cloudy
3:00 PM 86 °F - 69 °F 47% 29.80 in 12 mi ENE 17.3 mph - -   Scattered Clouds
3:00 PM 86.0 °F 89.4 °F 68.0 °F 55% 29.78 in 6.2 mi ENE 17.3 mph - N/A   Scattered Clouds
4:00 PM 84.2 °F 87.3 °F 68.0 °F 58% 29.79 in 6.2 mi ENE 13.8 mph - N/A   Scattered Clouds
5:00 PM 82.4 °F 85.4 °F 68.0 °F 62% 29.80 in 6.2 mi ENE 15.0 mph - N/A   Scattered Clouds
6:00 PM 80 °F - 68 °F 58% 29.83 in 12 mi ENE 6.9 mph - -   Clear
6:00 PM 78.8 °F - 68.0 °F 69% 29.81 in - ENE 6.9 mph - N/A   Clear
7:00 PM 80.6 °F 83.2 °F 68.0 °F 65% 29.83 in - ENE 11.5 mph - N/A   Clear
8:00 PM 80.6 °F 83.2 °F 68.0 °F 65% 29.86 in - East 15.0 mph - N/A   Clear